Date String (YYYY-MM-DD hh:mm:ss) UTC,Instrument flags,absolute air pressure of the measurement (hPa),sample flow rate (lpm),inlet stack bypass flow (lpm),air temperature of the measurement (°C),ambient temperature measured by the external sensor (°C),aerosol sample conditioner tube jacket temperature (°C),OPC LED temperature (°C),internal box temperature (°C),relative humidity of the measurement (%),span deviation,mass concentration of particles derived from Lorenz-Mie calculation of OPC scattering (μg/m³),mass concentration of particles derived from Lorenz-Mie calculation of OPC scattering (μg/m³),mass concentration of particles derived from Lorenz-Mie calculation of OPC scattering (μg/m³)
DateTimeUTC,F1_M11,P_M11,Q1_M11,Q2_M11,T1_M11,T2_M11,T3_M11,T4_M11,T5_M11,U1_M11,ZSPAN_M11,X0_M11,X2_M11,X1_M11
2023-10-25 19:00:00,SystemResetWarning,0825.1,5.00,000.00,029.3,024.7,000.0,037.8,030.7,20.5,-002.1,0025.66,0013.88,0011.76
2023-10-25 19:01:00,SystemResetWarning,0825.1,5.01,000.00,029.2,025.0,000.0,037.7,030.5,20.8,-001.9,0025.59,0013.89,0011.76
2023-10-25 19:02:00,SystemResetWarning,0825.1,5.00,000.00,029.1,025.4,000.0,037.7,030.4,20.9,-002.1,0025.97,0013.90,0011.76
2023-10-25 19:03:00,SystemResetWarning,0825.1,5.00,000.00,029.1,025.9,000.0,037.7,030.5,20.9,-002.1,0025.43,0013.97,0011.79
2023-10-25 19:04:00,SystemResetWarning,0825.1,5.01,000.00,029.1,026.3,000.0,037.7,030.5,21.0,-002.1,0024.89,0014.01,0011.83
2023-10-25 19:05:00,SystemResetWarning,0825.0,5.00,000.00,029.1,026.6,000.0,037.7,030.6,21.0,-002.3,0024.36,0014.02,0011.83
2023-10-25 19:06:00,SystemResetWarning,0825.0,4.99,000.00,029.1,026.9,000.0,037.6,030.6,21.0,-002.2,0024.37,0013.96,0011.80
2023-10-25 19:07:00,SystemResetWarning,0824.9,5.00,000.00,029.1,027.2,000.0,037.6,030.7,21.0,-002.2,0024.15,0013.90,0011.74
2023-10-25 19:08:00,SystemResetWarning,0824.9,5.01,000.00,029.1,027.4,000.0,037.6,030.8,20.9,-002.2,0024.74,0013.83,0011.69
2023-10-25 19:09:00,SystemResetWarning,0824.9,5.00,000.00,029.1,027.6,000.0,037.6,030.8,20.7,-002.1,0025.36,0013.80,0011.65
2023-10-25 19:10:00,SystemResetWarning,0824.9,5.00,000.00,029.1,027.8,000.0,037.6,030.9,21.0,-002.2,0024.88,0013.71,0011.63
2023-10-25 19:11:00,SystemResetWarning,0824.9,5.00,000.00,029.2,027.9,000.0,037.6,030.9,21.3,-002.1,0025.10,0013.72,0011.61
2023-10-25 19:12:00,SystemResetWarning,0824.9,4.99,000.00,029.2,028.0,000.0,037.6,031.0,21.3,-002.5,0025.44,0013.73,0011.61
2023-10-25 19:13:00,SystemResetWarning,0824.9,4.99,000.00,029.2,028.1,000.0,037.6,031.0,21.2,-002.5,0025.56,0013.73,0011.56
2023-10-25 19:14:00,SystemResetWarning,0824.9,5.00,000.00,029.3,028.2,000.0,037.6,031.0,21.1,-002.4,0025.99,0013.72,0011.52
2023-10-25 19:15:00,SystemResetWarning,0824.9,5.00,000.00,029.3,028.2,000.0,037.7,031.1,21.0,-002.6,0026.00,0013.60,0011.44
2023-10-25 19:16:00,SystemResetWarning,0824.9,5.00,000.00,029.3,028.2,000.0,037.7,031.1,21.0,-002.6,0025.98,0013.53,0011.41
2023-10-25 19:17:00,SystemResetWarning,0824.9,4.99,000.00,029.3,026.6,000.0,037.6,031.0,20.9,-002.5,0026.68,0013.69,0011.44
2023-10-25 19:18:00,SystemResetWarning,0824.8,5.01,000.00,029.2,024.8,000.0,037.6,030.7,20.9,-002.5,0027.32,0013.83,0011.51
2023-10-25 19:19:00,SystemResetWarning,0824.7,5.01,000.00,029.1,024.4,000.0,037.5,030.5,21.0,-002.6,0026.70,0013.91,0011.57
2023-10-25 19:20:00,SystemResetWarning,0824.7,5.01,000.00,029.0,024.7,000.0,037.5,030.3,21.1,-002.6,0026.36,0013.94,0011.60
2023-10-25 19:21:00,SystemResetWarning,0824.7,5.00,000.00,028.9,025.1,000.0,037.5,030.3,21.2,-002.7,0026.32,0013.99,0011.66
2023-10-25 19:22:00,SystemResetWarning,0824.7,5.00,000.00,028.9,025.6,000.0,037.5,030.3,21.4,-003.0,0026.81,0014.12,0011.75
2023-10-25 19:23:00,SystemResetWarning,0824.7,5.00,000.00,028.9,026.0,000.0,037.5,030.3,21.6,-002.7,0026.54,0014.27,0011.86
2023-10-25 19:24:00,SystemResetWarning,0824.7,5.00,000.00,028.9,026.4,000.0,037.5,030.4,22.1,-002.5,0026.52,0014.39,0011.99
2023-10-25 19:25:00,SystemResetWarning,0824.7,5.01,000.00,028.9,026.7,000.0,037.4,030.5,22.2,-002.6,0027.39,0014.51,0012.09
2023-10-25 19:26:00,SystemResetWarning,0824.7,4.99,000.00,028.9,027.0,000.0,037.4,030.5,22.1,-002.5,0028.39,0014.73,0012.21
2023-10-25 19:27:00,SystemResetWarning,0824.7,4.99,000.00,028.9,027.3,000.0,037.4,030.6,21.8,-002.4,0028.56,0014.91,0012.33
2023-10-25 19:28:00,SystemResetWarning,0824.6,5.00,000.00,029.0,027.5,000.0,037.4,030.6,21.5,-002.3,0028.19,0014.87,0012.40
2023-10-25 19:29:00,SystemResetWarning,0824.5,5.00,000.00,029.0,027.6,000.0,037.4,030.7,21.4,-002.3,0027.67,0014.82,0012.43
2023-10-25 19:30:00,SystemResetWarning,0824.5,5.01,000.00,029.0,027.8,000.0,037.4,030.7,21.3,-002.1,0027.34,0014.86,0012.46
2023-10-25 19:31:00,SystemResetWarning,0824.5,5.00,000.00,029.1,027.9,000.0,037.5,030.8,21.4,-002.1,0027.36,0014.99,0012.56
2023-10-25 19:32:00,SystemResetWarning,0824.5,4.99,000.00,029.1,028.0,000.0,037.5,030.9,21.4,-002.1,0028.34,0015.12,0012.64
2023-10-25 19:33:00,SystemResetWarning,0824.5,4.99,000.00,029.1,028.1,000.0,037.5,030.9,21.3,-001.8,0028.47,0015.17,0012.66
2023-10-25 19:34:00,SystemResetWarning,0824.5,5.00,000.00,029.2,028.2,000.0,037.5,031.0,21.3,-001.7,0029.76,0015.19,0012.69
2023-10-25 19:35:00,SystemResetWarning,0824.5,5.00,000.00,029.2,028.3,000.0,037.5,031.0,21.2,-001.6,0030.93,0015.19,0012.71
2023-10-25 19:36:00,SystemResetWarning,0824.5,5.00,000.00,029.3,028.3,000.0,037.5,031.0,21.2,-001.7,0030.12,0015.15,0012.75
2023-10-25 19:37:00,SystemResetWarning,0824.4,5.00,000.00,029.3,027.3,000.0,037.5,031.0,21.7,-001.9,0029.67,0015.07,0012.77
2023-10-25 19:38:00,SystemResetWarning,0824.3,5.00,000.00,029.2,025.6,000.0,037.5,030.8,21.7,-001.7,0030.03,0015.03,0012.80
2023-10-25 19:39:00,SystemResetWarning,0824.3,5.01,000.00,029.1,025.3,000.0,037.4,030.7,21.9,-001.7,0030.03,0015.05,0012.83
2023-10-25 19:40:00,SystemResetWarning,0824.3,5.01,000.00,029.0,025.6,000.0,037.4,030.4,21.9,-001.7,0030.10,0015.11,0012.87
2023-10-25 19:41:00,SystemResetWarning,0824.3,4.99,000.00,029.0,025.9,000.0,037.5,030.4,21.9,-001.9,0030.32,0015.18,0012.93
2023-10-25 19:42:00,SystemResetWarning,0824.2,5.00,000.00,029.0,026.3,000.0,037.5,030.5,21.9,-002.0,0030.00,0015.22,0012.94
2023-10-25 19:43:00,SystemResetWarning,0824.2,5.00,000.00,029.0,026.6,000.0,037.5,030.5,21.9,-001.8,0029.55,0015.20,0012.96
2023-10-25 19:44:00,SystemResetWarning,0824.2,5.00,000.00,029.0,026.9,000.0,037.5,030.6,21.9,-001.9,0029.23,0015.20,0013.00
2023-10-25 19:45:00,SystemResetWarning,0824.2,4.99,000.00,029.0,027.2,000.0,037.4,030.7,21.9,-002.0,0028.40,0015.25,0013.00
2023-10-25 19:46:00,SystemResetWarning,0824.1,4.99,000.00,029.0,027.4,000.0,037.5,030.7,21.9,-002.3,0026.87,0015.38,0013.07
2023-10-25 19:47:00,SystemResetWarning,0824.2,5.00,000.00,029.1,027.6,000.0,037.4,030.8,21.8,-002.4,0026.53,0015.40,0013.13
2023-10-25 19:48:00,SystemResetWarning,0824.2,5.00,000.00,029.1,027.8,000.0,037.5,030.8,21.7,-002.1,0026.32,0015.49,0013.20
2023-10-25 19:49:00,SystemResetWarning,0824.1,5.01,000.00,029.1,027.9,000.0,037.5,030.9,21.7,-002.2,0025.92,0015.56,0013.27
2023-10-25 19:50:00,SystemResetWarning,0824.1,5.01,000.00,029.2,028.0,000.0,037.5,030.9,21.8,-002.3,0025.80,0015.64,0013.32
2023-10-25 19:51:00,SystemResetWarning,0824.2,5.00,000.00,029.2,028.1,000.0,037.5,031.0,21.8,-002.5,0026.14,0015.70,0013.40
2023-10-25 19:52:00,SystemResetWarning,0824.1,4.99,000.00,029.2,027.9,000.0,037.5,031.0,21.7,-002.4,0026.51,0015.72,0013.45
2023-10-25 19:53:00,SystemResetWarning,0824.0,5.00,000.00,029.2,026.1,000.0,037.5,030.8,21.7,-002.1,0027.59,0015.70,0013.51
2023-10-25 19:54:00,SystemResetWarning,0824.0,5.02,000.00,029.1,025.3,000.0,037.4,030.7,21.7,-002.2,0028.28,0015.76,0013.56
2023-10-25 19:55:00,SystemResetWarning,0824.0,5.00,000.00,029.0,025.4,000.0,037.4,030.5,21.9,-002.2,0030.26,0015.83,0013.59
2023-10-25 19:56:00,SystemResetWarning,0824.0,4.99,000.00,029.0,025.7,000.0,037.4,030.4,22.0,-002.3,0030.07,0015.84,0013.64
2023-10-25 19:57:00,SystemResetWarning,0824.0,5.00,000.00,028.9,026.1,000.0,037.4,030.4,22.1,-002.0,0029.95,0015.76,0013.66
2023-10-25 19:58:00,SystemResetWarning,0824.0,5.01,000.00,028.9,026.5,000.0,037.4,030.5,22.1,-001.9,0030.52,0015.82,0013.66
2023-10-25 19:59:00,SystemResetWarning,0824.0,5.01,000.00,028.9,026.8,000.0,037.4,030.6,22.0,-002.1,0030.25,0015.83,0013.66
